Klamath Falls, OR

6:04 AM PST on November 24, 2017 (GMT -0800)
Klamath Falls International

Weather History for KLMT - February, 2013

Change the Weather History Date:

Saturday, February 23, 2013

  Actual Average Record
Temperature  
Mean Temperature 29 °F 36 °F  
Max Temperature 36 °F 47 °F 70 °F (1995)
Min Temperature 22 °F 25 °F 8 °F (1974)
Degree Days  
Heating Degree Days 36 29  
Month to date heating degree days 738 717  
Since 1 July heating degree days 4535 4697  
Cooling Degree Days 0 0  
Month to date cooling degree days 0 0  
Year to date cooling degree days 0 0  
Moisture  
Dew Point 22 °F    
Average Humidity 76    
Maximum Humidity 88    
Minimum Humidity 56    
Precipitation  
Precipitation T in 0.06 in 0.40 in (1968)
Month to date precipitation 0.34 1.58  
Year to date precipitation 0.78 3.43  
Sea Level Pressure  
Sea Level Pressure 30.18 in    
Wind  
Wind Speed 8 mph (NW)    
Max Wind Speed 25 mph    
Max Gust Speed 33 mph    
Visibility 8 miles    
Events Snow    
T = Trace of Precipitation, MM = Missing Value Source: NWS Daily Summary

Daily Weather History Graph

Daily Weather History Graph

Search for Another Location

Airport or City:

Trip Planner

Search our weather history database for the weather conditions in past years. The results will help you decide how hot, cold, wet, or windy it might be!

Date:

Astronomy

Feb. 23, 2013 Rise Set
Actual Time 6:50 AM PST 5:50 PM PST
Civil Twilight 6:22 AM PST 6:18 PM PST
Nautical Twilight 5:50 AM PST 6:50 PM PST
Astronomical Twilight 5:17 AM PST 7:23 PM PST
Moon 4:04 PM PST (2/23) 5:17 AM PST (2/23)
Length of Visible Light 11h 55m
Length of Day
10h 59m
Waxing Gibbous, 96% of the Moon is Illuminated
Feb 23
Waxing Gibbous
Feb 25
Full
Mar 4
Last Quarter
Mar 11
New
Mar 19
First Quarter

Hourly Weather History & Observations

Time (PST) Temp. Windchill Dew Point Humidity Pressure Visibility Wind Dir Wind Speed Gust Speed Precip Events Conditions
12:53 AM 28.9 °F 16.9 °F 25.0 °F 85% 30.05 in 5.0 mi WNW 17.3 mph - 0.00 in Snow Light Snow
1:21 AM 28.4 °F 21.2 °F 24.8 °F 86% 30.03 in 10.0 mi NW 6.9 mph 21.9 mph 0.00 in   Mostly Cloudy
1:53 AM 28.0 °F 15.7 °F 21.0 °F 75% 30.04 in 10.0 mi WNW 17.3 mph 23.0 mph 0.00 in   Partly Cloudy
2:53 AM 26.1 °F 20.5 °F 21.9 °F 84% 30.07 in 10.0 mi NW 4.6 mph - N/A   Scattered Clouds
3:15 AM 28.4 °F - 24.8 °F 86% 30.06 in 4.0 mi Calm Calm - 0.00 in Snow Light Snow
3:25 AM 28.4 °F 24.6 °F 24.8 °F 86% 30.06 in 2.0 mi North 3.5 mph - 0.00 in Snow Light Snow
3:28 AM 28.4 °F 20.4 °F 24.8 °F 86% 30.06 in 1.2 mi NNW 8.1 mph - 0.00 in Snow Light Snow
3:37 AM 26.6 °F 15.7 °F 24.8 °F 93% 30.06 in 0.8 mi WNW 12.7 mph 18.4 mph 0.00 in Snow Light Snow
3:42 AM 26.6 °F 15.7 °F 24.8 °F 93% 30.06 in 2.0 mi WNW 12.7 mph - 0.00 in Snow Light Snow
3:53 AM 27.0 °F 14.3 °F 23.0 °F 85% 30.09 in 1.5 mi WNW 17.3 mph - 0.00 in Snow Light Snow
4:06 AM 26.6 °F 16.2 °F 23.0 °F 86% 30.07 in 2.0 mi NW 11.5 mph - 0.00 in Snow Light Snow
4:14 AM 26.6 °F 16.8 °F 23.0 °F 86% 30.07 in 8.0 mi WNW 10.4 mph - 0.00 in   Overcast
4:53 AM 26.1 °F 15.0 °F 19.9 °F 78% 30.11 in 10.0 mi West 12.7 mph - 0.00 in   Mostly Cloudy
5:53 AM 25.0 °F 14.8 °F 19.9 °F 81% 30.15 in 10.0 mi NW 10.4 mph - N/A   Partly Cloudy
6:03 AM 24.8 °F 16.9 °F 19.4 °F 80% 30.10 in 7.0 mi WNW 6.9 mph - N/A   Mostly Cloudy
6:53 AM 26.6 °F 20.0 °F 21.2 °F 80% 30.17 in 7.0 mi WSW 5.8 mph - N/A   Mostly Cloudy
7:53 AM 27.0 °F 23.0 °F 21.0 °F 78% 30.20 in 10.0 mi NW 3.5 mph - N/A   Mostly Cloudy
8:43 AM 30.2 °F - 21.2 °F 69% 30.17 in 10.0 mi Calm Calm - N/A   Scattered Clouds
8:53 AM 30.0 °F - 21.0 °F 69% 30.22 in 10.0 mi Calm Calm - N/A   Scattered Clouds
9:53 AM 30.2 °F 26.7 °F 21.2 °F 69% 30.23 in 10.0 mi WNW 3.5 mph - N/A   Mostly Cloudy
10:53 AM 32.0 °F 22.5 °F 19.9 °F 61% 30.25 in 10.0 mi North 12.7 mph - N/A   Mostly Cloudy
11:53 AM 33.1 °F 24.4 °F 19.9 °F 59% 30.26 in 10.0 mi North 11.5 mph - N/A   Mostly Cloudy
12:53 PM 33.1 °F 26.9 °F 21.0 °F 61% 30.26 in 10.0 mi West 6.9 mph 18.4 mph N/A   Mostly Cloudy
1:43 PM 33.8 °F 23.5 °F 21.2 °F 60% 30.19 in 10.0 mi NNW 16.1 mph 20.7 mph 0.00 in Snow Light Snow
1:53 PM 34.0 °F 25.5 °F 23.0 °F 64% 30.26 in 9.0 mi WNW 11.5 mph - 0.00 in Snow Light Snow
2:14 PM 33.8 °F 25.3 °F 21.2 °F 60% 30.21 in 10.0 mi NW 11.5 mph - 0.00 in   Mostly Cloudy
2:53 PM 34.0 °F 26.6 °F 21.0 °F 59% 30.27 in 10.0 mi NW 9.2 mph - 0.00 in   Mostly Cloudy
3:53 PM 33.8 °F 23.2 °F 19.4 °F 56% 30.27 in 10.0 mi NNW 17.3 mph - N/A   Mostly Cloudy
4:53 PM 30.9 °F 21.2 °F 23.0 °F 72% 30.29 in 10.0 mi NW 12.7 mph - N/A   Scattered Clouds
5:53 PM 30.9 °F 22.2 °F 21.9 °F 69% 30.31 in 10.0 mi NNW 10.4 mph - N/A   Scattered Clouds
6:53 PM 28.0 °F - 19.9 °F 72% 30.33 in 10.0 mi Calm Calm - N/A   Scattered Clouds
8:53 PM 27.0 °F - 21.0 °F 78% 30.34 in 10.0 mi Calm Calm - N/A   Clear
9:53 PM 25.0 °F - 21.0 °F 85% 30.36 in 10.0 mi Calm Calm - N/A   Clear
10:53 PM 23.0 °F - 19.9 °F 88% 30.36 in 10.0 mi Calm Calm - N/A   Clear
11:53 PM 21.9 °F 17.2 °F 19.9 °F 92% 30.36 in 10.0 mi East 3.5 mph - N/A   Clear